Location: Unspecified
(43.4354°N, 0.0000°E)
Time: 21:29:50
(UTC+00:00)

Vanguard 2 - All Passes

Search period start: 24 June 2019 00:00
Search period end: 04 July 2019 00:00
Orbit: 553 x 2939 km, 32.9° (Epoch: 21 June)

Date Brightness Start Highest point End Pass type
(mag) Time Alt. Az. Time Alt. Az. Time Alt. Az.
24 Jun - 06:25:57 10° SSE 06:27:05 11° SE 06:28:16 10° SE daylight
24 Jun - 08:29:30 10° SW 08:34:14 31° SSE 08:41:14 10° ESE daylight
24 Jun - 10:36:14 10° WSW 10:42:34 38° S 10:52:33 10° ESE daylight
24 Jun - 12:44:28 10° WSW 12:51:53 27° SSW 13:02:26 10° SSE daylight
24 Jun - 14:58:42 10° SW 15:01:44 11° SW 15:05:01 10° SSW daylight
25 Jun - 06:41:55 10° S 06:44:33 15° SSE 06:47:41 10° ESE daylight
25 Jun - 08:47:07 10° SW 08:51:57 33° S 08:59:13 10° ESE daylight
25 Jun - 10:54:09 10° WSW 11:00:26 34° S 11:10:07 10° SE daylight
25 Jun - 13:03:04 10° WSW 13:09:48 21° SSW 13:18:47 10° SSE daylight
26 Jun - 06:58:53 10° SSW 07:02:07 19° SSE 07:06:09 10° ESE daylight
26 Jun - 09:04:49 10° WSW 09:09:43 33° S 09:17:07 10° ESE daylight
26 Jun - 11:12:12 10° WSW 11:18:19 29° SSW 11:27:26 10° SE daylight
26 Jun - 13:22:20 10° WSW 13:27:42 15° SSW 13:34:18 10° S daylight
27 Jun - 07:16:11 10° SW 07:19:44 23° SSE 07:24:21 10° ESE daylight
27 Jun - 09:22:37 10° WSW 09:27:32 32° S 09:34:52 10° ESE daylight
27 Jun - 11:30:27 10° WSW 11:36:13 24° SSW 11:44:25 10° SSE daylight
27 Jun - 13:44:27 10° SW 13:45:37 10° SSW 13:46:49 10° SSW daylight
28 Jun - 07:33:42 10° SW 07:37:26 25° SSE 07:42:22 10° ESE daylight
28 Jun - 09:40:31 10° WSW 09:45:22 29° S 09:52:28 10° SE daylight
28 Jun - 11:49:01 10° WSW 11:54:08 18° SSW 12:00:53 10° SSE daylight
29 Jun - 05:45:50 10° S 05:47:47 13° SSE 05:49:54 10° SE daylight
29 Jun - 07:51:22 10° SW 07:55:09 26° S 08:00:16 10° ESE daylight
29 Jun - 09:58:33 10° WSW 10:03:13 25° S 10:09:51 10° SE daylight
29 Jun - 12:08:23 10° SW 12:12:03 13° SSW 12:16:26 10° S daylight
30 Jun - 06:02:49 10° SSW 06:05:26 17° SSE 06:08:20 10° ESE daylight
30 Jun - 08:09:08 10° SW 08:12:56 26° S 08:18:03 10° SE daylight
30 Jun - 10:16:48 10° WSW 10:21:05 20° SSW 10:26:54 10° SSE daylight
01 Jul - 06:20:11 10° SW 06:23:07 19° SSE 06:26:28 10° ESE daylight
01 Jul - 08:27:01 10° WSW 08:30:44 23° S 08:35:40 10° SE daylight
01 Jul - 10:35:27 10° SW 10:38:59 15° SSW 10:43:23 10° SSE daylight
02 Jul - 04:32:41 10° S 04:33:26 10° SSE 04:34:11 10° SSE daylight
02 Jul - 06:37:47 10° SW 06:40:51 21° S 06:44:24 10° SE daylight
02 Jul - 08:45:03 10° SW 08:48:33 20° S 08:53:04 10° SE daylight
02 Jul - 10:55:31 10° SSW 10:56:52 11° SSW 10:58:19 10° S daylight
03 Jul - 04:48:59 10° SSW 04:51:09 14° SSE 04:53:15 10° SE daylight
03 Jul - 06:55:30 10° SW 06:58:36 21° S 07:02:11 10° SE daylight
03 Jul - 09:03:21 10° SW 09:06:23 16° SSW 09:10:06 10° SSE daylight
